Temperature
13 13 12 11 11 11 9 9 9 10 9 7 5 5 4 3 1 -1 -2 -3 -4 -5 -5 -6 -7 -8 -8 -9 -9 -10 -10 -11 -12 -12 -13 -13 -13 -14 -14 -14 -14 -14 -14 -13
12 13 11 10 10 10 10 10 9 9 8 6 6 5 4 2 -0 -2 -3 -4 -4 -5 -5 -6 -7 -8 -8 -9 -9 -10 -11 -11 -12 -12 -13 -13 -13 -14 -14 -14 -14 -14 -14 -13
10 13 12 10 11 10 10 10 9 8 8 6 6 4 3 1 -1 -2 -3 -4 -4 -5 -6 -7 -8 -8 -9 -9 -9 -10 -11 -12 -12 -12 -13 -13 -13 -14 -14 -14 -14 -14 -14 -13
9 9 10 12 8 10 10 10 10 9 8 6 5 3 1 -0 -2 -3 -4 -4 -5 -5 -6 -7 -8 -8 -8 -9 -10 -11 -11 -12 -12 -12 -13 -13 -13 -13 -14 -14 -14 -13 -13 -13
8 8 9 10 8 8 9 8 9 8 7 6 4 2 -2 -2 -2 -3 -4 -4 -5 -5 -6 -7 -8 -8 -8 -9 -10 -11 -11 -11 -12 -13 -13 -13 -13 -13 -13 -13 -13 -13 -13 -13
7 6 8 11 8 8 8 6 7 7 6 4 3 0 -1 -2 -3 -3 -4 -4 -5 -6 -6 -7 -8 -8 -8 -9 -10 -11 -11 -11 -12 -13 -13 -13 -13 -13 -13 -13 -13 -13 -13 -13
6 6 8 8 7 7 6 7 6 6 5 3 2 -0 -1 -2 -3 -3 -4 -4 -5 -6 -6 -7 -8 -8 -8 -9 -10 -11 -11 -11 -12 -12 -13 -13 -13 -13 -13 -13 -13 -13 -13 -13
8 7 7 7 5 5 6 6 6 4 3 2 1 -1 -2 -3 -3 -3 -4 -4 -5 -6 -6 -7 -8 -8 -8 -9 -10 -10 -11 -11 -12 -12 -13 -13 -13 -13 -13 -13 -13 -13 -13 -13
10 9 9 7 7 7 6 5 4 4 3 2 -0 -2 -3 -3 -3 -3 -4 -5 -5 -6 -6 -7 -8 -8 -9 -9 -9 -10 -10 -11 -11 -12 -12 -13 -13 -13 -13 -13 -13 -14 -13 -13
8 9 9 8 7 6 5 5 4 3 2 1 -0 -2 -2 -3 -3 -4 -4 -5 -5 -6 -6 -7 -7 -8 -8 -9 -9 -9 -10 -11 -11 -12 -12 -13 -13 -13 -13 -13 -13 -13 -14 -13
7 9 9 7 6 5 4 4 3 2 1 0 -1 -2 -2 -3 -3 -4 -5 -5 -6 -6 -6 -7 -7 -8 -8 -8 -8 -9 -10 -11 -11 -12 -13 -13 -13 -13 -13 -13 -13 -13 -14 -13
9 11 8 7 6 5 4 3 3 2 1 -0 -1 -1 -2 -2 -3 -4 -5 -5 -5 -6 -6 -7 -7 -7 -8 -8 -8 -9 -10 -11 -11 -12 -13 -13 -13 -13 -13 -13 -13 -14 -14 -13
11 10 9 8 6 4 3 3 3 2 1 0 -1 -2 -2 -3 -3 -4 -4 -5 -5 -6 -6 -7 -7 -7 -8 -8 -8 -9 -10 -10 -11 -11 -12 -13 -13 -13 -14 -14 -14 -14 -14 -14
10 9 7 5 4 3 3 3 2 1 0 -1 -1 -2 -2 -3 -3 -4 -4 -5 -5 -6 -6 -7 -7 -7 -7 -7 -8 -8 -9 -10 -10 -11 -12 -12 -13 -13 -13 -14 -14 -14 -14 -14
8 7 7 5 4 3 3 2 2 1 -0 -1 -1 -2 -2 -3 -3 -4 -4 -5 -5 -5 -6 -6 -7 -7 -7 -7 -8 -8 -9 -9 -9 -10 -11 -12 -12 -12 -13 -13 -14 -14 -14 -14
6 5 4 4 4 4 3 2 2 1 -0 -1 -1 -2 -2 -3 -3 -4 -4 -4 -5 -5 -6 -6 -6 -7 -7 -7 -7 -8 -8 -9 -9 -9 -10 -11 -12 -12 -12 -13 -13 -14 -14 -14
6 3 2 3 4 4 4 3 2 1 0 -1 -1 -2 -2 -3 -3 -4 -4 -4 -5 -5 -5 -6 -6 -7 -7 -7 -7 -8 -8 -8 -9 -9 -9 -10 -11 -11 -11 -12 -12 -13 -13 -13
8 8 8 7 6 5 4 3 2 1 0 -1 -1 -2 -2 -3 -3 -4 -4 -4 -5 -5 -5 -6 -6 -6 -7 -7 -7 -8 -8 -8 -8 -9 -9 -9 -10 -10 -11 -11 -11 -11 -12 -12
6 6 6 5 5 5 4 3 2 1 -0 -1 -1 -2 -2 -3 -3 -4 -4 -4 -5 -5 -5 -5 -6 -6 -6 -7 -7 -8 -8 -8 -8 -8 -9 -9 -9 -10 -10 -10 -10 -10 -11 -11
6 5 5 5 5 4 4 3 2 1 -0 -1 -2 -2 -3 -3 -3 -4 -4 -4 -4 -4 -5 -5 -5 -5 -6 -6 -7 -7 -7 -8 -8 -8 -8 -9 -9 -9 -10 -10 -10 -10 -10 -10
5 5 5 5 4 4 3 2 2 1 -0 -1 -2 -2 -3 -3 -3 -4 -4 -4 -4 -4 -4 -4 -5 -5 -6 -6 -7 -7 -7 -7 -7 -7 -8 -8 -9 -9 -10 -10 -10 -10 -10 -10
5 5 5 4 4 3 3 2 1 1 -0 -1 -2 -2 -3 -3 -3 -4 -4 -4 -4 -4 -5 -5 -5 -5 -5 -6 -6 -6 -6 -6 -7 -7 -7 -8 -8 -9 -9 -10 -11 -11 -11 -11
6 5 5 4 4 3 3 2 1 0 -0 -1 -2 -2 -3 -3 -3 -4 -4 -4 -4 -4 -4 -4 -5 -5 -5 -6 -6 -6 -6 -6 -6 -6 -7 -7 -8 -8 -9 -10 -11 -11 -11 -11
6 5 4 4 3 3 2 2 1 0 -1 -2 -2 -2 -3 -3 -4 -4 -4 -4 -4 -4 -4 -4 -5 -5 -5 -5 -6 -6 -6 -6 -6 -6 -6 -6 -7 -7 -7 -8 -10 -11 -11 -11
6 5 4 3 3 3 2 2 1 -0 -1 -2 -3 -3 -3 -4 -4 -4 -4 -4 -4 -4 -4 -5 -5 -5 -5 -5 -5 -6 -6 -6 -6 -6 -6 -6 -6 -7 -7 -7 -8 -9 -10 -11
5 4 4 4 3 3 3 2 1 0 -1 -2 -2 -3 -3 -4 -4 -4 -4 -5 -5 -5 -5 -5 -5 -5 -5 -5 -5 -6 -6 -6 -6 -6 -6 -6 -6 -7 -7 -7 -7 -8 -9 -10
4 4 3 3 2 2 2 2 1 1 0 -1 -1 -2 -3 -4 -4 -4 -5 -5 -5 -5 -5 -5 -5 -5 -5 -5 -6 -6 -6 -6 -6 -6 -6 -6 -7 -7 -7 -6 -7 -7 -8 -8
Wind_Speed
8 7 4 7 7 7 9 9 7 8 7 4 6 5 7 8 9 8 8 8 9 9 9 9 10 10 10 10 9 10 10 10 10 10 11 12 14 14 13 13 15 12 13 15
6 3 3 8 10 10 9 9 10 10 6 7 5 6 7 8 8 7 7 8 9 9 10 10 11 11 10 10 10 10 10 10 10 10 11 12 14 14 14 13 12 12 14 16
5 3 6 8 5 11 7 7 6 5 1 5 4 6 6 7 8 6 7 7 8 9 9 10 10 10 10 11 11 11 10 9 10 10 12 13 15 14 13 11 11 12 13 14
5 7 6 4 3 1 6 6 6 4 2 5 6 7 9 9 7 6 6 7 7 8 8 9 8 9 10 11 11 11 10 10 10 11 11 11 11 12 11 9 10 10 11 13
2 4 9 3 4 3 4 6 5 4 4 6 7 5 6 7 7 6 5 5 5 6 8 9 9 10 10 11 11 11 11 11 11 11 11 11 11 11 10 9 9 9 10 12
3 3 7 4 6 4 3 5 5 6 6 6 5 1 2 4 6 5 5 4 5 7 7 8 9 9 10 12 11 12 13 13 12 11 11 11 11 10 9 9 10 11 11 11
5 7 10 3 7 7 4 5 8 7 7 6 4 4 6 7 6 5 5 6 7 7 7 8 9 9 10 11 11 12 12 13 12 11 11 11 10 9 10 10 11 11 12 11
6 6 10 8 9 8 6 6 8 8 7 7 8 9 7 6 5 5 6 6 7 7 8 8 8 8 10 11 11 12 12 13 12 11 12 13 10 9 9 9 9 9 9 10
8 9 2 9 8 4 8 7 7 7 8 8 7 7 7 5 5 5 5 6 6 7 8 8 8 8 10 11 11 12 12 12 11 12 10 10 9 8 8 7 7 8 9 9
7 7 7 10 7 8 7 8 10 10 9 8 7 8 7 5 4 4 4 5 6 7 8 8 9 9 9 10 11 12 13 11 10 11 11 9 9 8 7 8 7 7 8 9
8 5 6 9 9 9 9 12 12 9 8 8 9 8 6 4 3 3 3 4 5 6 7 8 9 9 9 9 11 11 12 10 10 11 10 9 10 9 10 7 10 8 5 6
9 7 8 8 12 12 13 12 12 11 9 8 8 9 7 5 3 2 3 4 5 7 8 8 9 9 9 9 11 11 12 10 8 8 9 9 8 9 17 17 19 18 15 12
3 5 5 9 13 12 12 12 11 10 11 10 8 7 7 5 4 2 3 4 5 7 8 8 8 9 9 9 12 11 10 9 8 10 9 9 9 8 9 13 18 17 16 15
9 8 7 7 9 12 12 12 10 10 9 9 8 7 6 5 3 2 2 4 6 7 7 7 8 8 9 11 12 11 9 10 10 7 8 8 7 7 7 9 8 7 11 16
9 8 8 9 13 14 14 13 13 11 10 9 8 8 7 5 3 1 3 5 5 6 5 6 8 9 9 11 12 11 8 7 6 6 6 7 7 6 6 7 7 6 5 8
10 9 12 15 16 16 15 13 12 13 10 9 8 8 7 5 3 4 5 3 3 5 6 6 7 9 11 10 11 9 7 14 12 7 7 7 7 6 6 6 6 6 6 6
15 13 13 16 17 17 16 13 14 14 12 11 10 9 8 5 4 5 2 2 3 6 6 5 7 10 11 9 9 7 6 9 14 9 6 7 7 6 6 6 7 7 7 10
16 16 16 20 20 18 16 13 13 13 11 10 10 9 8 7 5 3 1 3 5 6 3 3 7 8 9 9 7 5 6 6 6 7 7 7 8 7 7 7 7 8 8 10
12 12 13 15 16 16 16 14 14 13 12 12 12 10 8 6 5 3 2 4 5 5 4 6 10 8 7 10 12 4 6 7 7 7 7 12 11 8 8 8 8 9 9 9
12 12 13 14 14 13 14 13 14 13 12 12 11 9 8 7 5 4 4 5 5 4 6 7 6 5 7 10 12 4 6 7 7 7 8 8 9 10 10 11 10 10 9 9
14 14 15 15 14 13 14 15 16 15 13 13 13 11 9 8 7 5 4 4 4 5 6 6 3 4 8 10 10 5 6 6 7 7 8 9 10 11 11 12 12 12 11 11
14 14 16 16 15 14 13 13 13 15 14 12 11 10 9 8 7 5 5 5 3 5 4 2 3 7 10 10 5 5 6 6 7 8 8 9 10 11 11 12 12 13 13 12
13 13 16 16 16 14 13 12 13 14 14 14 14 13 10 8 6 5 4 4 3 5 3 2 4 8 9 6 4 5 6 6 6 8 9 9 9 10 11 12 12 12 12 13
13 14 14 13 13 14 15 13 12 10 10 10 10 11 9 7 5 4 3 3 4 4 2 3 5 6 7 4 4 5 5 5 6 7 8 9 9 9 9 11 12 12 12 13
15 15 16 17 16 13 13 13 11 9 10 8 9 9 7 5 5 6 5 4 5 3 2 3 4 4 4 3 3 4 5 5 6 6 7 9 9 10 10 10 11 12 12 12
13 14 14 14 12 12 13 13 12 11 11 10 10 9 8 6 5 5 5 4 6 5 3 3 3 3 2 3 4 4 4 5 6 6 7 7 8 9 9 10 12 11 12 15
11 11 11 10 9 11 13 13 13 13 13 13 12 10 10 9 8 7 6 5 5 4 3 4 3 2 2 3 4 5 6 7 7 7 8 9 10 11 12 14 14 16 17 19
Wind_Direction
288 278 232 256 262 236 213 230 254 279 333 51 84 44 43 53 55 32 12 9 1 351 345 342 341 337 335 329 325 327 320 318 319 322 323 324 324 322 323 326 325 321 323 320
284 211 235 260 240 236 246 238 249 277 307 105 64 51 40 61 58 26 8 3 355 347 343 340 335 331 328 324 326 319 313 313 317 321 324 324 323 326 327 324 321 323 322 320
284 292 277 273 242 199 210 210 224 251 133 97 48 38 28 78 66 32 12 359 350 342 338 330 323 325 327 330 322 317 316 318 321 321 322 323 329 328 325 322 324 323 321 322
295 338 269 242 8 306 207 227 220 232 76 82 73 54 73 81 67 38 15 357 341 332 324 316 320 328 328 323 319 320 325 328 326 323 319 321 325 325 323 321 320 316 318 325
340 295 278 227 183 183 206 265 209 186 128 96 70 61 88 66 68 50 21 359 334 325 318 324 330 328 326 324 323 329 334 333 331 326 325 328 329 327 327 325 322 319 322 328
171 241 258 246 134 95 89 264 156 133 125 104 78 308 150 95 75 54 24 356 338 332 331 330 322 323 328 328 331 337 336 335 331 329 331 330 329 327 326 328 331 332 335 334
213 236 266 149 132 123 171 238 135 128 122 117 129 139 125 106 79 48 25 359 353 343 332 321 318 330 330 330 336 335 333 331 332 335 335 333 331 330 332 338 340 341 343 342
198 226 259 150 148 189 205 121 125 122 120 121 113 110 109 98 80 48 19 360 354 341 326 320 329 337 331 332 331 333 334 334 337 339 339 342 336 337 338 343 346 348 349 351
209 222 178 160 185 164 129 139 128 120 119 122 123 124 117 104 81 51 22 359 348 334 323 326 336 341 333 328 333 337 337 336 338 338 335 337 340 341 341 343 350 358 356 356
276 259 189 185 151 134 141 129 119 123 125 128 128 121 118 107 81 48 18 356 343 331 328 331 337 337 326 328 339 339 335 334 341 340 339 341 345 345 346 345 357 6 358 352
254 250 131 181 159 142 116 112 113 114 120 130 128 132 137 134 98 56 6 347 339 331 327 327 330 329 330 345 344 339 333 335 345 346 339 340 346 350 354 354 11 12 348 348
231 215 181 192 161 143 138 140 140 135 129 128 133 141 147 147 116 68 357 349 341 333 328 323 326 328 339 350 345 340 338 343 348 346 343 343 344 349 0 5 11 13 12 15
173 101 104 132 141 138 143 144 147 144 143 135 135 147 150 137 116 70 8 359 335 321 316 319 329 332 342 346 344 338 332 341 350 347 340 343 350 353 352 355 5 9 8 8
121 108 115 135 143 137 131 135 131 125 129 140 148 146 135 124 108 61 341 315 302 303 312 332 333 330 335 343 343 336 331 344 350 333 333 336 343 350 350 347 347 347 355 356
156 145 151 138 127 126 133 137 138 141 147 150 140 138 141 147 160 239 283 281 294 308 333 335 327 326 331 339 341 334 334 334 337 331 331 333 336 340 340 339 337 333 329 342
160 136 136 143 146 147 151 154 158 162 160 151 152 159 157 151 178 249 258 275 318 314 313 312 318 321 331 334 336 335 334 343 350 342 333 332 330 329 329 327 324 322 321 317
155 159 161 168 166 168 171 172 169 166 162 161 165 157 152 161 214 240 224 8 300 281 280 306 313 312 326 329 328 328 324 329 343 338 326 326 326 324 321 319 319 319 315 319
180 178 174 174 172 171 173 168 162 162 163 160 150 153 164 181 199 187 267 303 294 288 276 326 300 308 322 322 324 324 320 319 323 321 326 331 334 326 320 316 316 316 314 317
164 161 162 165 168 168 168 166 160 156 152 154 160 169 175 170 155 176 234 268 274 277 286 303 319 334 318 324 342 323 325 325 327 327 328 339 342 330 326 320 315 312 309 311
158 155 154 153 155 159 161 156 149 151 157 159 159 158 162 170 175 194 222 243 245 248 276 285 306 314 317 324 342 329 329 328 330 331 335 339 338 337 336 333 328 320 314 307
156 154 153 155 156 156 157 153 155 160 163 165 165 168 170 170 174 185 213 248 228 240 276 307 342 313 316 332 342 332 330 333 334 335 339 342 341 340 339 338 339 339 335 326
158 158 158 157 156 156 155 155 158 159 162 166 162 157 158 166 179 197 223 231 254 282 290 295 302 315 332 344 337 328 333 340 339 340 343 343 343 341 338 338 341 343 342 339
161 161 162 163 162 156 151 157 161 165 169 171 169 170 173 177 179 185 214 203 215 272 281 258 302 327 342 353 334 332 337 341 339 344 344 342 342 339 335 334 337 339 340 341
162 162 161 153 143 148 160 167 163 166 167 168 168 168 167 168 181 199 184 185 215 260 256 272 311 336 354 357 335 335 335 332 332 342 342 340 339 337 334 334 335 337 338 338
162 158 155 155 161 169 165 155 151 153 159 165 167 171 172 170 171 173 168 187 217 242 255 278 308 343 359 338 332 331 327 323 332 344 340 337 337 337 336 335 335 336 339 340
163 166 169 172 169 164 162 164 169 172 175 178 180 182 182 181 172 158 167 188 208 224 228 249 282 319 331 329 325 323 320 324 333 332 330 333 332 334 334 332 330 336 339 340
151 157 160 164 165 164 166 171 175 179 183 183 182 181 180 179 180 183 185 191 198 206 215 227 237 251 278 301 310 316 318 319 323 325 329 331 329 330 330 328 332 338 341 341
Height
1593 1591 1592 1594 1594 1594 1598 1597 1597 1588 1587 1591 1594 1594 1595 1595 1595 1595 1594 1592 1588 1584 1580 1575 1569 1564 1558 1552 1546 1540 1534 1528 1522 1516 1510 1504 1497 1491 1486 1481 1476 1471 1465 1458
1594 1588 1593 1593 1590 1591 1590 1589 1589 1588 1589 1591 1592 1593 1593 1593 1593 1594 1593 1590 1587 1583 1578 1573 1567 1561 1556 1550 1545 1538 1532 1526 1521 1514 1508 1502 1496 1490 1485 1479 1474 1469 1463 1456
1601 1587 1589 1588 1578 1581 1583 1582 1584 1586 1587 1588 1589 1591 1592 1591 1592 1593 1591 1589 1586 1581 1577 1571 1566 1561 1555 1549 1543 1536 1531 1525 1519 1513 1507 1501 1495 1490 1484 1478 1473 1467 1461 1456
1604 1601 1601 1577 1578 1575 1576 1577 1578 1580 1583 1586 1589 1590 1590 1590 1591 1591 1589 1587 1584 1580 1575 1570 1565 1560 1555 1548 1542 1536 1530 1523 1517 1511 1506 1500 1495 1489 1484 1478 1473 1467 1462 1456
1609 1608 1595 1579 1578 1578 1579 1579 1576 1578 1582 1585 1587 1589 1590 1590 1590 1589 1588 1585 1582 1578 1574 1569 1564 1559 1553 1547 1541 1535 1528 1521 1516 1510 1505 1500 1494 1489 1484 1479 1473 1468 1463 1457
1610 1613 1600 1574 1577 1577 1581 1583 1576 1578 1581 1584 1586 1590 1591 1590 1588 1587 1586 1584 1581 1577 1573 1568 1563 1558 1552 1546 1540 1534 1527 1521 1516 1511 1506 1500 1495 1490 1485 1480 1474 1469 1464 1459
1609 1609 1588 1575 1576 1580 1586 1576 1575 1577 1580 1583 1585 1587 1589 1587 1587 1586 1584 1583 1580 1576 1572 1567 1562 1558 1552 1546 1540 1534 1528 1522 1516 1511 1506 1501 1496 1491 1486 1481 1475 1470 1465 1461
1598 1602 1587 1574 1575 1577 1574 1571 1573 1576 1579 1582 1583 1584 1585 1585 1585 1585 1584 1582 1579 1575 1571 1567 1562 1557 1552 1546 1541 1534 1528 1522 1516 1511 1506 1502 1496 1491 1486 1481 1476 1471 1467 1463
1579 1576 1565 1566 1566 1568 1569 1571 1573 1575 1578 1580 1582 1582 1583 1584 1584 1584 1583 1581 1578 1575 1571 1567 1563 1558 1552 1547 1541 1534 1528 1522 1517 1511 1507 1502 1497 1492 1487 1482 1478 1474 1469 1466
1571 1563 1561 1562 1564 1566 1568 1570 1571 1574 1576 1578 1579 1580 1581 1582 1583 1583 1582 1580 1577 1574 1570 1567 1563 1558 1553 1548 1542 1535 1528 1523 1518 1512 1507 1503 1499 1494 1489 1484 1480 1476 1472 1469
1567 1559 1558 1559 1560 1563 1566 1567 1570 1572 1574 1576 1577 1578 1580 1580 1581 1581 1580 1579 1576 1573 1570 1566 1562 1558 1553 1548 1542 1535 1529 1524 1519 1514 1509 1505 1500 1496 1491 1487 1483 1479 1475 1472
1557 1550 1552 1552 1555 1558 1561 1564 1568 1570 1572 1573 1575 1576 1577 1579 1579 1580 1579 1577 1575 1572 1569 1566 1562 1558 1553 1548 1542 1536 1530 1525 1520 1515 1510 1507 1502 1497 1493 1490 1485 1481 1478 1475
1546 1546 1547 1548 1552 1554 1558 1562 1565 1568 1569 1571 1572 1574 1576 1577 1578 1578 1577 1576 1574 1571 1568 1565 1562 1558 1554 1549 1543 1538 1532 1527 1522 1517 1512 1508 1504 1499 1493 1490 1486 1482 1479 1476
1540 1542 1544 1546 1549 1552 1555 1560 1563 1565 1567 1569 1570 1572 1574 1575 1576 1576 1575 1574 1572 1570 1568 1565 1562 1558 1554 1549 1544 1539 1534 1529 1524 1519 1514 1510 1506 1501 1496 1491 1487 1483 1479 1476
1535 1538 1540 1542 1545 1548 1552 1556 1559 1562 1564 1566 1568 1571 1573 1574 1575 1575 1574 1573 1571 1569 1566 1564 1561 1558 1554 1549 1545 1540 1535 1530 1526 1521 1516 1512 1508 1503 1498 1493 1489 1484 1480 1476
1531 1534 1535 1537 1540 1543 1547 1551 1555 1557 1560 1563 1566 1568 1570 1572 1573 1573 1572 1571 1569 1567 1566 1563 1560 1557 1553 1550 1545 1541 1537 1532 1528 1523 1518 1513 1509 1504 1499 1494 1489 1485 1481 1477
1524 1526 1529 1531 1534 1538 1543 1547 1550 1553 1556 1560 1563 1566 1568 1570 1571 1571 1570 1569 1568 1566 1564 1562 1560 1556 1553 1550 1546 1542 1537 1533 1529 1524 1519 1514 1510 1506 1501 1496 1491 1486 1481 1477
1515 1519 1521 1524 1528 1533 1538 1543 1546 1550 1553 1557 1560 1563 1565 1567 1568 1569 1568 1568 1567 1565 1563 1561 1559 1556 1553 1550 1546 1542 1538 1534 1529 1525 1520 1515 1511 1507 1502 1497 1492 1487 1481 1477
1510 1514 1518 1521 1526 1531 1535 1539 1543 1547 1550 1553 1557 1560 1563 1565 1566 1566 1567 1566 1565 1563 1562 1560 1558 1556 1553 1549 1546 1542 1538 1534 1530 1525 1521 1516 1512 1507 1503 1498 1493 1488 1482 1477
1505 1509 1514 1518 1523 1528 1533 1536 1540 1543 1547 1550 1553 1557 1560 1562 1563 1564 1564 1564 1563 1562 1560 1559 1557 1555 1552 1549 1546 1542 1538 1534 1530 1525 1521 1516 1511 1507 1503 1498 1494 1489 1484 1478
1499 1504 1508 1513 1519 1524 1529 1532 1536 1539 1543 1546 1549 1553 1556 1559 1561 1562 1562 1562 1562 1561 1559 1557 1555 1554 1551 1548 1545 1542 1538 1534 1530 1525 1521 1516 1511 1507 1503 1498 1494 1490 1485 1480
1494 1499 1504 1509 1514 1519 1524 1528 1532 1536 1539 1542 1546 1549 1552 1555 1558 1559 1560 1561 1560 1559 1558 1556 1554 1552 1550 1548 1545 1542 1538 1534 1530 1526 1521 1516 1511 1507 1503 1498 1494 1490 1486 1480
1488 1494 1499 1504 1510 1515 1520 1524 1528 1532 1535 1538 1541 1545 1549 1552 1554 1556 1557 1558 1558 1557 1556 1555 1553 1551 1549 1547 1544 1542 1538 1535 1531 1527 1522 1517 1513 1508 1503 1499 1495 1490 1485 1480
1483 1488 1494 1501 1506 1511 1515 1519 1523 1528 1532 1536 1539 1542 1545 1548 1550 1552 1554 1555 1555 1555 1555 1553 1552 1550 1548 1546 1544 1542 1539 1535 1532 1528 1524 1519 1515 1510 1504 1499 1494 1490 1485 1480
1477 1483 1489 1494 1499 1505 1510 1515 1519 1523 1527 1531 1535 1538 1541 1544 1547 1549 1550 1552 1553 1553 1553 1552 1550 1549 1548 1546 1544 1541 1539 1536 1532 1529 1525 1521 1516 1511 1506 1501 1495 1490 1484 1479
1472 1477 1482 1489 1496 1501 1505 1509 1513 1517 1521 1525 1528 1532 1535 1539 1542 1544 1546 1548 1550 1550 1550 1550 1549 1548 1546 1545 1543 1541 1538 1536 1533 1529 1526 1522 1517 1513 1508 1502 1496 1490 1484 1478
1468 1473 1480 1486 1490 1495 1499 1504 1508 1512 1516 1520 1523 1527 1530 1534 1537 1540 1542 1544 1546 1547 1548 1547 1547 1546 1544 1543 1541 1539 1537 1535 1532 1529 1526 1522 1518 1513 1508 1503 1497 1491 1484 1478